Saginaw, MI

8:17 PM EST on November 24, 2017 (GMT -0500)
MBS International

Weather History for KMBS - February, 2013

Change the Weather History Date:

Wednesday, February 20, 2013

  Actual Average Record
Temperature  
Mean Temperature 18 °F 26 °F  
Max Temperature 21 °F 33 °F 56 °F (2016)
Min Temperature 15 °F 18 °F -15 °F (2015)
Degree Days  
Heating Degree Days 47    
Month to date heating degree days  
Since 1 July heating degree days  
Cooling Degree Days 0    
Month to date cooling degree days  
Year to date cooling degree days  
Moisture  
Dew Point 9 °F    
Average Humidity 65    
Maximum Humidity 73    
Minimum Humidity 57    
Precipitation  
Precipitation 0.00 in 0.06 in 0.59 in (2002)
Month to date precipitation 1.04  
Year to date precipitation 2.75  
Snow  
Snow 0.00 in - - ()
Month to date snowfall  
Since 1 July snowfall  
Snow Depth -    
Sea Level Pressure  
Sea Level Pressure 30.11 in    
Wind  
Wind Speed 15 mph (WNW)    
Max Wind Speed 21 mph    
Max Gust Speed 31 mph    
Visibility 10 miles    
Events Snow    
T = Trace of Precipitation, MM = Missing Value Source: NWS Daily Summary

Daily Weather History Graph

Daily Weather History Graph

Search for Another Location

Airport or City:

Trip Planner

Search our weather history database for the weather conditions in past years. The results will help you decide how hot, cold, wet, or windy it might be!

Date:

Astronomy

Feb. 20, 2013 Rise Set
Actual Time 7:26 AM EST 6:13 PM EST
Civil Twilight 6:57 AM EST 6:42 PM EST
Nautical Twilight 6:24 AM EST 7:16 PM EST
Astronomical Twilight 5:51 AM EST 7:49 PM EST
Moon 1:28 PM EST (2/20) 3:51 AM EST (2/20)
Length of Visible Light 11h 45m
Length of Day
10h 46m
Waxing Gibbous, 76% of the Moon is Illuminated
Feb 20
Waxing Gibbous
Feb 25
Full
Mar 4
Last Quarter
Mar 11
New
Mar 19
First Quarter

Hourly Weather History & Observations

Time (EST) Temp. Windchill Dew Point Humidity Pressure Visibility Wind Dir Wind Speed Gust Speed Precip Events Conditions
12:53 AM 18.0 °F 3.1 °F 6.1 °F 60% 29.92 in 10.0 mi WNW 16.1 mph - N/A   Overcast
1:53 AM 17.1 °F 2.5 °F 6.1 °F 62% 29.94 in 10.0 mi West 15.0 mph - N/A   Overcast
2:53 AM 16.0 °F 0.1 °F 5.0 °F 62% 29.96 in 10.0 mi West 17.3 mph - N/A   Clear
3:53 AM 16.0 °F 0.1 °F 6.1 °F 65% 29.97 in 10.0 mi West 17.3 mph - N/A   Clear
4:53 AM 16.0 °F 0.1 °F 6.1 °F 65% 29.99 in 10.0 mi West 17.3 mph - N/A   Scattered Clouds
5:53 AM 16.0 °F 0.1 °F 7.0 °F 68% 30.01 in 10.0 mi West 17.3 mph - N/A   Mostly Cloudy
6:53 AM 16.0 °F 0.1 °F 8.1 °F 71% 30.04 in 10.0 mi West 17.3 mph - N/A   Overcast
7:00 AM 15.8 °F 0.3 °F 8.6 °F 73% 30.00 in 10.0 mi West 16.1 mph - N/A   Overcast
7:15 AM 15.8 °F 2.1 °F 6.8 °F 68% 30.01 in 10.0 mi West 12.7 mph - N/A   Overcast
7:53 AM 16.0 °F 1.7 °F 8.1 °F 71% 30.07 in 10.0 mi West 13.8 mph - N/A   Overcast
8:07 AM 17.6 °F 3.7 °F 8.6 °F 68% 30.04 in 10.0 mi West 13.8 mph - N/A   Overcast
8:53 AM 17.1 °F 3.6 °F 8.1 °F 68% 30.09 in 10.0 mi West 12.7 mph - N/A   Overcast
9:40 AM 17.6 °F 3.7 °F 8.6 °F 68% 30.06 in 10.0 mi WNW 13.8 mph 19.6 mph N/A   Overcast
9:53 AM 19.0 °F 6.8 °F 8.1 °F 62% 30.11 in 10.0 mi NW 11.5 mph - N/A   Overcast
10:37 AM 19.4 °F 7.2 °F 10.4 °F 68% 30.08 in 8.0 mi NNW 11.5 mph - 0.00 in Snow Light Snow
10:53 AM 19.0 °F 6.1 °F 9.0 °F 65% 30.12 in 9.0 mi NW 12.7 mph - 0.00 in   Overcast
11:53 AM 19.9 °F 7.9 °F 8.1 °F 60% 30.13 in 10.0 mi WNW 11.5 mph 20.7 mph N/A   Overcast
12:53 PM 21.0 °F 5.4 °F 8.1 °F 57% 30.14 in 10.0 mi NW 20.7 mph 25.3 mph N/A   Overcast
1:53 PM 21.9 °F 9.8 °F 9.0 °F 58% 30.15 in 10.0 mi WNW 12.7 mph - N/A   Overcast
2:53 PM 21.9 °F 8.7 °F 9.0 °F 58% 30.16 in 10.0 mi WNW 15.0 mph 23.0 mph N/A   Overcast
3:53 PM 21.0 °F 6.6 °F 9.0 °F 60% 30.18 in 10.0 mi WNW 17.3 mph 24.2 mph N/A   Overcast
4:53 PM 21.0 °F 7.6 °F 9.0 °F 60% 30.22 in 10.0 mi WNW 15.0 mph - N/A   Overcast
5:53 PM 21.0 °F 7.1 °F 9.0 °F 60% 30.23 in 10.0 mi NW 16.1 mph - N/A   Overcast
6:53 PM 21.0 °F 7.1 °F 10.0 °F 63% 30.25 in 10.0 mi NW 16.1 mph - N/A   Overcast
7:23 PM 21.2 °F 7.3 °F 10.4 °F 63% 30.21 in 10.0 mi NW 16.1 mph - N/A   Overcast
7:53 PM 21.0 °F 9.9 °F 12.0 °F 68% 30.25 in 10.0 mi NW 10.4 mph - 0.00 in Snow Light Snow
8:53 PM 21.0 °F 7.6 °F 12.9 °F 71% 30.25 in 6.0 mi NNW 15.0 mph - 0.00 in Snow Light Snow
9:53 PM 21.0 °F 6.2 °F 12.0 °F 68% 30.26 in 10.0 mi NNW 18.4 mph 31.1 mph 0.00 in   Overcast
10:53 PM 19.9 °F 6.2 °F 10.9 °F 68% 30.27 in 10.0 mi NNW 15.0 mph - N/A   Overcast
11:53 PM 19.9 °F 7.9 °F 12.0 °F 71% 30.27 in 10.0 mi North 11.5 mph - N/A   Overcast